NOAA 16 DEB, 42384

Orbit data source: Space-Track

NOAA 16 DEB, 42384 is space debris in SSO originally from a launch on Thu, 21 Sep 2000 UTC launched from the Air Force Western Test Range (AFWTR). Debris objects in space refer to the collection of defunct objects orbiting the Earth. Examples of debris include non-operational satellites, rocket bodies, and fragments generated from explosions, collisions, or faulty payload assembly.

Loading next visibility...
Identifier
42384, 2000-055SC
Orbit
SSO
Country
Flag of USUS
Related business
Manufacturer
Unknown
Mission
Spacecraft
Bus & Motor
Unknown
Mass
Unknown
Launch date (UTC)
2000-09-21 (26 years ago)
Launch vehicle
Unknown
Launch site
Air Force Western Test Range (AFWTR)
Object type
Payload
Rocket body
Debris
Shape & HBR
Unknown shape, 0.1 m
Radar Cross Section
Medium (>0.1 m² and <1 m²)

Expand to show TLE details & history
Last TLE update: 2 days ago

TLE from 2 days ago
0 NOAA 16 DEB
1 42384U 00055SC  26218.44698293  .00002266  00000-0  81996-3 0  9997
2 42384  98.6617 296.5207 0015435 155.1926 205.0004 14.34392566539188
Epoch: 2026-08-06T10:43Z
TLE epoch observation values (Epoch: 2026-08-06T10:43:39.325Z)
Latitude
0.00002°
Longitude
-179.38006°
Altitude
790.036 km
Speed
7.453 km/s
True Right ascension
19h 46m 04s
True Declination
0° 00' 00"
Sunlit
Object was in full shadow at epoch
Visualization orbit readout
Latitude
Unknown
Longitude
Unknown
Altitude
Unknown
Speed
Unknown
Apparent Right ascension
Unknown
Apparent Declination
Unknown
Sunlit
N/A
Visualization observer readout
Local Sidereal Time
00:10:00
Azimuth
Unknown
Elevation
Unknown
Doppler factor
Unknown
Orbital elements
Apogee altitude
785.262 km
Perigee altitude
763.183 km
Semi-major axis
7,152.36 km
Eccentricity
0.00154
Inclination
98.6617°
RAAN
296.5207°
Arg. of periapsis
155.1926°
True anomaly
204.92578°
Mean anomaly
205.0004°
Eccentric anomaly
204.96308°
Mean motion
3.58814 °/min
Orbital period
100.33 mins
BSTAR
0.00081996
Loading maneuver chart data...
Computing Atmospheric mass density...
Loading historical data...
Loading historical data...
Loading historical data...
Loading historical data...
Loading historical data...
Loading historical data...
Loading historical data...

Documentation

Showing up to 5 results
|